www.pogodaiklimat.ru

Погода и климат >> Архив погоды >> Чили >> Arica


ПОГОДА в Arica

  • Прогноз погоды в Arica
  • Монитор погоды в Arica
  • Климат города

АРХИВ ПОГОДЫ в Arica

Время (UTC), дата Ветер
(напр.,м/с)
 
Видим.   Явления Облачность Т
(С)
Тd
(С)
f
(%)
Тe
(С)
Тes
(С)
Комфортность P
(гПа)
Po
(гПа)
Тmin
(С)
Tmax
(С)
R
(мм)
R24
(мм)
S
(см)
18 19.04 Ю 6 20 км ясно +22.8 +12.6 53 +26 +32 жарко 1012.1 1007.8
21 19.04 ЮЗ 4 30 км ясно +20.9 +13.7 63 +24 +25 комфорт 1011.3 1007.0
00 20.04 ЮЗ 2 10 км ясно +19.2 +14.3 73 +21 +21 комфорт 1013.0 1008.6 +23.5
03 20.04 С 3 20 км ясно +18.5 +13.6 73 +19 +19 1015.3 1010.9
06 20.04 С 3 40 км ясно +18.1 +12.6 70 +19 +19 1015.6 1011.2 0.0
09 20.04 В 3 40 км ясно +17.3 +10.7 65 +17 +17 1014.5 1010.1
12 20.04 ЮВ 2 40 км ясно +18.7 +11.8 64 +20 +21 1014.6 1010.2 +16.8
15 20.04 ЮЗ 3 30 км ясно +23.5 +12.6 50 +25 +36 комфорт 1013.6 1009.3
18 20.04 ЮЗ 5 40 км ясно +23.0 +14.2 58 +27 +34 душно 1012.0 1007.5
21 20.04 ЮЗ 4 20 км ясно +21.7 +14.0 62 +25 +26 комфорт 1011.8 1007.5
00 21.04 З 1 40 км ясно +20.2 +14.6 70 +24 +24 комфорт 1013.9 1009.5 +24.1
03 21.04 штиль 0 20 км ясно +19.2 +13.9 71 +20 +20 1014.1 1009.7
06 21.04 СВ 2 40 км ясно +18.6 +12.1 66 +20 +20 1012.6 1008.2
09 21.04 ЮВ 2 10 км ясно +16.7 +11.1 70 +17 +17 1011.6 1007.2
12 21.04 СВ 3 20 км ясно +18.1 +12.4 69 +19 +20 1013.2 1008.8 +16.1
15 21.04 ЮЗ 4 20 км 5/0
[]
+22.7 +13.6 56 +26 +32 жарко 1013.4 1009.1
18 21.04 ЮЗ 5 20 км 3/0
[Ci fib]
+22.4 +13.9 59 +26 +33 жарко 1011.4 1007.1
21 21.04 ЮЗ 4 20 км 4/0
[]
+21.9 +13.6 59 +25 +26 комфорт 1011.1 1006.8
00 22.04 штиль 0 10 км ясно +20.5 +13.1 62 +22 +22 комфорт 1013.6 1009.2 +23.6
03 22.04 СВ 1 40 км ясно +19.0 +10.9 59 +21 +21 комфорт 1014.6 1010.2
06 22.04 штиль 0 10 км ясно +17.6 +13.8 78 +18 +18 1013.6 1009.2
09 22.04 СВ 3 30 км ясно +17.2 +12.4 73 +17 +17 1012.4 1008.0
12 22.04 В 2 40 км 5/0
[Ci fib]
+18.7 +12.3 66 +20 +21 1013.6 1009.2 +16.1
15 22.04 З 5 20 км 6/0
[]
+21.4 +13.4 60 +24 +29 комфорт 1014.5 1010.2
18 22.04 ЮЗ 7 20 км 3/0
[Ci fib]
+22.2 +14.4 61 +25 +29 комфорт 1012.5 1008.2
21 22.04 ЮЗ 4 20 км ясно +21.6 +13.9 62 +24 +26 комфорт 1011.3 1007.0
00 23.04 СЗ 1 20 км ясно +19.8 +14.5 71 +23 +23 комфорт 1013.2 1008.8 +23.2
03 23.04 З 2 9000 м мгла ясно +19.1 +14.6 75 +21 +21 комфорт 1014.1 1009.7
06 23.04 С 5 10 км ясно +17.7 +13.9 78 +17 +17 1013.7 1009.3
09 23.04 СВ 3 20 км ясно +17.4 +13.8 79 +17 +17 1013.2 1008.8
12 23.04 В 2 8000 м мгла 3/0
[Ci fib]
+17.7 +13.5 76 +18 +20 1014.0 1009.6 +16.4
15 23.04 Ю 5 20 км 3/0
[Ac trans]
+22.2 +13.7 59 +25 +31 комфорт 1014.3 1010.0
18 23.04 ЮЗ 6 10 км 4/0
[Ac trans]
+22.0 +14.5 62 +25 +29 комфорт 1012.4 1008.1
21 23.04 Ю 5 20 км 4/0
[Ac trans]
+21.3 +14.6 66 +24 +25 комфорт 1012.7 1008.4
00 24.04 СВ 1 20 км 3/0
[Ac trans]
+20.1 +14.5 70 +23 +23 комфорт 1015.8 1011.4 +23.5
03 24.04 З 2 3000 м дымка 3/0
[Ac trans]
+19.3 +13.8 70 +21 +21 комфорт 1017.9 1013.5
06 24.04 В 1 30 км 4/0
[Ac trans]
+18.1 +12.4 69 +19 +19 1016.1 1011.7
09 24.04 В 3 40 км 6/0
[]
+17.6 +12.3 71 +18 +18 1015.1 1010.7
12 24.04 СВ 1 6000 м мгла 4/0
[Ac trans]
+19.4 +13.0 66 +22 +23 комфорт 1015.5 1011.1 +17.1
15 24.04 ЮЗ 4 10 км ясно +22.0 +13.7 59 +25 +34 комфорт 1014.9 1010.6
18 24.04 Ю 6 20 км 1/0
[Ci fib]
+22.6 +15.3 63 +26 +32 жарко 1012.5 1008.2
21 24.04 Ю 5 20 км 6/0
[]
+21.2 +14.9 67 +24 +25 комфорт 1012.5 1008.2
00 25.04 штиль 0 10 км ясно +19.5 +14.8 74 +21 +21 комфорт 1014.7 1010.4 +23.6
03 25.04 ЮВ 1 20 км 8/0
[Ac trans]
+18.7 +13.8 73 +21 +21 комфорт 1015.9 1011.5
06 25.04 СВ 2 30 км 6/0
[Ac trans]
+18.1 +12.2 68 +19 +19 1014.6 1010.2
09 25.04 СВ 3 30 км 10/0
[As trans]
+19.4 +14.1 71 +21 +21 комфорт 1013.7 1009.3
12 25.04 штиль 0 20 км 9/3 1050 м
[Sc Ac trans]
+19.7 +13.7 68 +21 +22 комфорт 1014.2 1009.8 +17.5
15 25.04 ЮЗ 3 20 км 6/0
[Ac trans]
+21.9 +14.2 62 +25 +32 комфорт 1014.8 1010.5
18 25.04 Ю 5 20 км 9/0
[Ci fib]
+20.9 +13.7 63 +24 +30 комфорт 1012.8 1008.4
21 25.04 Ю 6 20 км 8/0
[Ac trans]
+20.6 +14.1 66 +23 +24 комфорт 1013.5 1009.1
00 26.04 В 2 20 км 8/0
[As trans]
+19.7 +13.7 68 +22 +22 комфорт 1014.5 1010.1 +22.8
03 26.04 С 2 20 км 8/0
[As trans]
+20.0 +13.8 67 +23 +23 комфорт 1014.6 1010.2
06 26.04 В 1 10 км 8/0
[As trans]
+18.9 +12.7 67 +21 +21 комфорт 1012.9 1008.5
09 26.04 штиль 0 6000 м мгла 9/9 1200 м
[Sc]
+18.1 +14.5 79 +18 +18 1012.8 1008.4
12 26.04 З 2 6000 м мгла 9/0 2000 м
[Ac trans Ci fib]
+19.1 +13.6 70 +21 +21 комфорт 1014.4 1010.0 +17.6
15 26.04 0 30 км 10/0
[As trans]
+22.9 +14.6 59 1015.1 1010.8

 

Местоположение метеостанции Arica (Чили): широта -18.46 долгота -70.16 высота над уровнем моря 58 м.

В архиве по умолчанию представлена погода в Arica за последнюю неделю. Архивные данные за месяц целиком и за предыдущие месяцы, начиная с января 2011 года, Вы можете получить, выбрав интересующий диапазон дат из раскрывающегося списка и нажав кнопку "Ввод!".


*Определитесь, кто Вы:
робот инопланетянин человек

Внимание! Время в таблицах - всемирное. Для получения местного времени необходимо прибавить поправку, которая в Arica равна -4 ч.

Смотрите также архив погоды в соседних городах и на ближайших метеорологических станциях:

Погода в Tacna (Перу) (47 км)
Погода в Ilo (Перу) (151 км)
Погода в Iquique (Чили) (230 км)
Погода в Arequipa (Перу) (280 км)
Погода в La Paz (Боливия) (302 км)
Погода в Ovejuyo (Боливия) (311 км)
Погода в Juliaca (Перу) (331 км)
Погода в Oruro (Боливия) (332 км)
Погода в Cochabamba (Боливия) (437 км)
Погода в Calama (Чили) (464 км)

Пояснения к столбцам:

Ветер - указаны скорость ветра в м/с - средняя за 10 мин, порывы в срок и между сроками (в фигурных скобках) и направление, откуда дует ветер: С - северный, СВ - северо-восточный, В - восточный, ЮВ - юго-восточный, Ю - южный, ЮЗ - юго-западный, З - западный, СЗ - северо-западный.
Видимость - горизонтальная дальность видимости в метрах или километрах. При видимости от 1 до 10 км при отсутствии осадков обычно наблюдается дымка, при ухудшении видимости до 1 км и менее - туман. В сухую погоду видимость может ухудшаться дымом, пылью или мглою.
Явления - указаны атмосферные явления, наблюдавшиеся в срок или в последний час перед сроком; фигурными скобками обозначены явления, наблюдавшиеся между сроками (за 1-3 часа до срока); квадратными скобками обозначены град или гололедные отложения с указанием их диаметра в мм.
Облачность - указаны через наклонную черту общая и нижняя облачность в баллах и высота нижней границы облаков в метрах; квадратными скобками обозначены формы облаков: Ci - перистые, Cs - перисто-слоистые, Cc - перисто-кучевые, Ac - высококучевые, As - высокослоистые, Sc - слоисто-кучевые, Ns - слоисто-дождевые, Cu - кучевые, Cb - кучево-дождевые. Подробнее классификацию облаков см. в Атласе облаков (PDF).
T - Температура воздуха - температура, измеренная на высоте 2 м над землей.
Td - Температура точки росы - температура, при понижении до которой содержащийся в воздухе водяной пар достигнет насыщения.
f - Относительная влажность воздуха - влажноcть воздуха, измеренная на высоте 2 м над землей.
Te - Эффективная температура - температура, которую ощущает одетый по сезону человек в тени. Характеристика душности погоды. При расчете учитывается влияние влажности воздуха и скорости ветра на теплоощущения человека.
Tes - Эффективная температура на солнце - температура, которую ощущает человек, с поправкой на солнечный нагрев. Характеристика знойности погоды. Зависит от высоты солнца над горизонтом, облачности и скорости ветра. Ночью, в пасмурную погоду, а также при ветре 12 м/с и более поправка равна нулю.
P - Атмосферное давление - приведенное к уровню моря атмосферное давление.
Po - Атмосферное давление - измеренное на уровне метеостанции атмосферное давление.
Tmin - Минимальная температура - минимум температуры воздуха на высоте 2 м над землей.
Tmax - Максимальная температура - максимум температуры воздуха на высоте 2 м над землей.
R - Количество осадков - Количество выпавших осадков за период времени, мм. При наведении курсора мыши на число - период времени, за который выпало указанное количество осадков.
R24 - Количество осадков - Количество выпавших осадков за 24 часа, мм.
S - Снежный покров - Высота снежного покрова, см. При наведении курсора мыши на число - состояние снежного покрова и степень покрытия местности в баллах.